Home   Weather   Kunming   Past weeks

Flag for China Past Weather in Kunming, Yunnan, China — Yesterday and Last 2 Weeks

Now
54 °F

Clear.


Feels Like: 49 °F
Forecast: 39 / 66 °F
Wind: 17 mph from Southwest

Location: Kunming Airport

Current Time: Jan 18, 2017 at 8:35:51 pm

Latest Report: Jan 18, 2017 at 8:00 pm


Visibility: 10 mi

Pressure: 30.21 "Hg (24.03 "Hg at 1909m altitude)

Humidity: 51%

Dew Point: 36 °F

Location of KunmingLocation

Past Weather in Kunming — Graph

°F

Kunming Temperature Yesterday

Maximum temperature yesterday: 63 °F (at 3:00 pm)
Minimum temperature yesterday: 39 °F (at 6:00 am)
Average temperature yesterday: 51 °F

High & Low Weather Summary for the Past Weeks

 TemperatureHumidityPressure
High66 °F (Jan 18, 3:00 pm)100% (Jan 5, 3:00 am)30.33 "Hg (Jan 5, 3:00 am)
Low37 °F (Jan 7, 7:00 am)19% (Jan 14, 4:00 pm)29.95 "Hg (Jan 13, 4:00 pm)
Average49 °F73%30.12 "Hg
* Reported Jan 3 7:00 pm — Jan 18 7:00 pm, Kunming, Weather by CustomWeather, © 2017

Note: Actual official high and low records may vary slightly from our data, if they occured in-between our weather recording intervals... More about our weather records

Advertising

Kunming Weather History for the Previous 24 Hours

Scroll right to see more
 ConditionsComfort  
Time TempWeatherWind HumidityBarometerVisibility
7:00 pm
Wed, Jan 18
57 °FClear.15 mph36%30.18 "Hg10 mi
6:00 pm63 °FSunny.22 mph30%30.18 "Hg10 mi
5:00 pm64 °FSunny.22 mph28%30.15 "Hg10 mi
4:00 pm66 °FSunny.24 mph24%30.15 "Hg10 mi
3:00 pm66 °FSunny.26 mph22%30.15 "Hg10 mi
2:00 pm64 °FSunny.26 mph32%30.18 "Hg10 mi
1:00 pm61 °FSunny.22 mph39%30.24 "Hg10 mi
12:00 pm57 °FSunny.20 mph48%30.27 "Hg10 mi
11:00 am54 °FSunny.17 mph63%30.30 "Hg10 mi
10:00 am50 °FSunny.13 mph82%30.27 "Hg10 mi
9:00 am46 °FSunny.10 mph93%30.27 "Hg10 mi
8:00 am43 °FSunny.10 mph100%30.24 "Hg10 mi
7:00 am41 °FClear.8 mph93%30.24 "Hg10 mi
6:00 am43 °FClear.10 mph93%30.21 "Hg10 mi
5:00 am45 °FClear.10 mph93%30.18 "Hg10 mi
4:00 am45 °FClear.8 mph93%30.21 "Hg10 mi
3:00 am45 °FClear.10 mph93%30.21 "Hg10 mi
2:00 am46 °FClear.10 mph87%30.21 "Hg10 mi
1:00 am46 °FClear.10 mph87%30.21 "Hg10 mi
12:00 am48 °FClear.10 mph82%30.21 "Hg10 mi
11:00 pm
Tue, Jan 17
48 °FClear.10 mph82%30.21 "Hg10 mi
10:00 pm50 °FClear.10 mph76%30.18 "Hg10 mi
9:00 pm52 °FClear.13 mph62%30.18 "Hg10 mi
8:00 pm54 °FClear.13 mph54%30.15 "Hg10 mi
Weather by CustomWeather, © 2017

See weather overviewHow to use our weather pages